Princeton, MN

7:09 PM CST on February 27, 2017 (GMT -0600)
Princeton Municipal

Weather History for KPNM - May, 2014

Change the Weather History Date:

Monday, May 26, 2014

  Actual Average Record
Temperature  
Mean Temperature 75 °F -  
Max Temperature 86 °F 67 °F 86 °F (2014)
Min Temperature 64 °F 44 °F 35 °F (1999)
Cooling Degree Days 10    
Growing Degree Days 25 (Base 50)    
Moisture  
Dew Point 64 °F    
Average Humidity 78    
Maximum Humidity 94    
Minimum Humidity 45    
Precipitation  
Precipitation 0.14 in - - ()
Sea Level Pressure  
Sea Level Pressure 29.90 in    
Wind  
Wind Speed 1 mph (WNW)    
Max Wind Speed 17 mph    
Max Gust Speed 30 mph    
Visibility 9 miles    
Events Rain , Thunderstorm    
Averages and records for this station are not official NWS values.
T = Trace of Precipitation, MM = Missing Value Source: NWS Daily Summary

Daily Weather History Graph

Daily Weather History Graph

Search for Another Location

Airport or City:

Trip Planner

Search our weather history database for the weather conditions in past years. The results will help you decide how hot, cold, wet, or windy it might be!

Date:

Astronomy

May. 26, 2014 Rise Set
Actual Time 5:32 AM CDT 8:50 PM CDT
Civil Twilight 4:56 AM CDT 9:26 PM CDT
Nautical Twilight 4:09 AM CDT 10:14 PM CDT
Astronomical Twilight 3:10 AM CDT 11:13 PM CDT
Moon 4:23 AM CDT (5/26) 6:47 PM CDT (5/26)
Length of Visible Light 16h 30m
Length of Day
15h 17m
Waning Crescent, 5% of the Moon is Illuminated
May 26
Waning Crescent
May 28
New
Jun 5
First Quarter
Jun 12
Full
Jun 19
Last Quarter

Hourly Weather History & Observations

Time (CDT) Temp. Heat Index Dew Point Humidity Pressure Visibility Wind Dir Wind Speed Gust Speed Precip Events Conditions
12:13 AM 69.8 °F - 62.6 °F 78% 29.90 in 10.0 mi Calm Calm - N/A   Mostly Cloudy
12:33 AM 69.8 °F - 62.6 °F 78% 29.90 in 10.0 mi Calm Calm - N/A   Scattered Clouds
12:53 AM 68.0 °F - 62.6 °F 83% 29.90 in 10.0 mi Calm Calm - N/A   Clear
1:13 AM 69.8 °F - 62.6 °F 78% 29.90 in 10.0 mi Calm Calm - N/A   Clear
1:33 AM 68.0 °F - 60.8 °F 78% 29.90 in 10.0 mi Calm Calm - N/A   Clear
1:53 AM 66.2 °F - 60.8 °F 83% 29.90 in 10.0 mi Calm Calm - N/A   Clear
2:13 AM 66.2 °F - 60.8 °F 83% 29.89 in 10.0 mi Calm Calm - N/A   Clear
2:33 AM 66.2 °F - 62.6 °F 88% 29.89 in 10.0 mi Calm Calm - N/A   Clear
2:53 AM 68.0 °F - 62.6 °F 83% 29.89 in 10.0 mi Calm Calm - N/A   Clear
3:13 AM 68.0 °F - 62.6 °F 83% 29.89 in 10.0 mi Calm Calm - N/A   Clear
3:33 AM 68.0 °F - 62.6 °F 83% 29.89 in 10.0 mi Calm Calm - N/A   Clear
4:13 AM 66.2 °F - 62.6 °F 88% 29.89 in 10.0 mi Calm Calm - N/A   Clear
4:33 AM 66.2 °F - 62.6 °F 88% 29.89 in 10.0 mi Calm Calm - N/A   Clear
4:53 AM 66.2 °F - 62.6 °F 88% 29.89 in 10.0 mi Calm Calm - N/A   Clear
5:13 AM 64.4 °F - 62.6 °F 94% 29.90 in 10.0 mi Calm Calm - N/A   Clear
5:34 AM 66.2 °F - 62.6 °F 88% 29.90 in 10.0 mi Calm Calm - N/A   Clear
5:53 AM 64.4 °F - 62.6 °F 94% 29.90 in 10.0 mi Calm Calm - N/A   Clear
6:13 AM 66.2 °F - 62.6 °F 88% 29.90 in 7.0 mi Calm Calm - N/A   Clear
6:34 AM 66.2 °F - 62.6 °F 88% 29.90 in 7.0 mi Calm Calm - N/A   Clear
7:13 AM 68.0 °F - 64.4 °F 88% 29.90 in 7.0 mi Calm Calm - N/A   Clear
7:34 AM 69.8 °F - 64.4 °F 83% 29.91 in 7.0 mi Calm Calm - N/A   Clear
7:53 AM 69.8 °F - 64.4 °F 83% 29.91 in 7.0 mi Calm Calm - N/A   Clear
8:13 AM 69.8 °F - 64.4 °F 83% 29.91 in 10.0 mi Calm Calm - N/A   Scattered Clouds
8:34 AM 71.6 °F - 64.4 °F 78% 29.91 in 10.0 mi Calm Calm - N/A   Scattered Clouds
8:53 AM 73.4 °F - 64.4 °F 73% 29.91 in 10.0 mi Calm Calm - N/A   Scattered Clouds
9:13 AM 75.2 °F - 64.4 °F 69% 29.91 in 10.0 mi Calm Calm - N/A   Clear
9:34 AM 75.2 °F - 64.4 °F 69% 29.91 in 10.0 mi Calm Calm - N/A   Clear
9:53 AM 75.2 °F - 64.4 °F 69% 29.91 in 10.0 mi Calm Calm - N/A   Clear
10:13 AM 78.8 °F - 62.6 °F 57% 29.91 in 10.0 mi Calm Calm - N/A   Clear
10:34 AM 80.6 °F 82.3 °F 64.4 °F 58% 29.91 in 10.0 mi Calm Calm - N/A   Clear
10:53 AM 80.6 °F 82.3 °F 64.4 °F 58% 29.90 in 10.0 mi Calm Calm - N/A   Clear
11:33 AM 82.4 °F 83.4 °F 62.6 °F 51% 29.90 in 10.0 mi Calm Calm - N/A   Clear
12:13 PM 84.2 °F 85.0 °F 62.6 °F 48% 29.89 in 10.0 mi Calm Calm - N/A   Scattered Clouds
12:33 PM 84.2 °F 85.6 °F 64.4 °F 51% 29.89 in 10.0 mi Calm Calm - N/A   Scattered Clouds
12:53 PM 84.2 °F 85.0 °F 62.6 °F 48% 29.88 in 10.0 mi Calm Calm - N/A   Scattered Clouds
1:13 PM 86.0 °F 86.6 °F 62.6 °F 45% 29.88 in 10.0 mi Calm Calm - N/A   Scattered Clouds
1:33 PM 84.2 °F 84.4 °F 60.8 °F 45% 29.87 in 10.0 mi Calm Calm - N/A   Mostly Cloudy
2:13 PM 84.2 °F 85.6 °F 64.4 °F 51% 29.86 in 10.0 mi Calm Calm - N/A Thunderstorm Mostly Cloudy
2:33 PM 84.2 °F 85.6 °F 64.4 °F 51% 29.85 in 10.0 mi Calm Calm - N/A Thunderstorm Scattered Clouds
2:53 PM 82.4 °F 83.9 °F 64.4 °F 54% 29.86 in 10.0 mi South 11.5 mph 16.1 mph N/A Thunderstorm Thunderstorm
3:13 PM 77.0 °F - 62.6 °F 61% 29.90 in 10.0 mi WNW 17.3 mph 29.9 mph N/A Thunderstorm Mostly Cloudy
3:34 PM 71.6 °F - 59.0 °F 64% 29.90 in 10.0 mi NNW 17.3 mph - N/A Thunderstorm Thunderstorm
3:53 PM 71.6 °F - 62.6 °F 73% 29.89 in 10.0 mi NNW 10.4 mph - N/A Thunderstorm Unknown
4:13 PM 71.6 °F - 62.6 °F 73% 29.89 in 10.0 mi Calm Calm - N/A Rain Light Rain
4:33 PM 69.8 °F - 64.4 °F 83% 29.90 in 3.0 mi Calm Calm - 0.04 in Rain Heavy Rain
5:13 PM 69.8 °F - 66.2 °F 88% 29.89 in 10.0 mi Calm Calm - 0.01 in Rain Light Rain
5:33 PM 71.6 °F - 66.2 °F 83% 29.88 in 10.0 mi Calm Calm - 0.01 in Rain Light Rain
6:13 PM 73.4 °F - 66.2 °F 78% 29.89 in 10.0 mi WNW 4.6 mph - N/A   Clear
6:33 PM 71.6 °F - 66.2 °F 83% 29.90 in 10.0 mi WSW 4.6 mph - N/A   Mostly Cloudy
6:53 PM 69.8 °F - 64.4 °F 83% 29.89 in 10.0 mi WSW 5.8 mph - N/A Rain Light Rain
7:13 PM 69.8 °F - 64.4 °F 83% 29.89 in 10.0 mi West 6.9 mph - 0.02 in Rain Light Rain
7:33 PM 69.8 °F - 64.4 °F 83% 29.89 in 10.0 mi West 3.5 mph - 0.02 in   Light Drizzle
7:53 PM 69.8 °F - 64.4 °F 83% 29.90 in 10.0 mi WNW 3.5 mph - 0.02 in Rain Light Rain
8:13 PM 68.0 °F - 64.4 °F 88% 29.90 in 10.0 mi Calm Calm - 0.01 in Rain Rain
8:33 PM 68.0 °F - 64.4 °F 88% 29.90 in 10.0 mi Calm Calm - 0.02 in Rain Light Rain
8:53 PM 66.2 °F - 64.4 °F 94% 29.89 in 10.0 mi Calm Calm - 0.02 in   Clear
9:13 PM 66.2 °F - 64.4 °F 94% 29.90 in 10.0 mi Calm Calm - N/A   Clear
9:34 PM 66.2 °F - 64.4 °F 94% 29.89 in 10.0 mi Calm Calm - N/A   Clear
10:13 PM 66.2 °F - 64.4 °F 94% 29.90 in 7.0 mi Calm Calm - N/A Rain Light Rain
10:34 PM 66.2 °F - 64.4 °F 94% 29.90 in 7.0 mi Calm Calm - 0.01 in Rain Light Rain
10:53 PM 66.2 °F - 64.4 °F 94% 29.90 in 10.0 mi Calm Calm - 0.02 in Rain Light Rain
11:13 PM 66.2 °F - 64.4 °F 94% 29.91 in 7.0 mi Calm Calm - 0.01 in Rain Light Rain
11:34 PM 66.2 °F - 64.4 °F 94% 29.91 in 7.0 mi Calm Calm - 0.02 in Rain Light Rain
11:53 PM 66.2 °F - 64.4 °F 94% 29.91 in 5.0 mi Calm Calm - 0.03 in Rain Light Rain